Vorticity
5 5 5 6 8 10 11 10 10 9 8 7 7 8 8 8 8 8 9 10 10 10 11 12 12 12 12 11 10 10 9 9 9 8 8 7 8 9 10 11 10 11 12 12 11 11 11 10 11 12 13 14 13 11 10 9 9 8 9 9 11 13 14
7 6 6 6 8 10 11 10 10 9 8 7 7 8 8 8 9 9 10 11 12 13 13 12 11 12 11 10 9 9 9 9 9 9 10 10 11 13 13 12 12 11 11 11 11 12 11 11 13 14 13 12 10 9 8 8 8 9 10 12 13 14 12
8 6 6 7 9 10 10 10 10 9 8 7 7 8 8 9 10 11 12 12 13 13 13 11 11 11 10 8 8 8 9 10 11 11 13 14 14 14 13 12 12 11 12 12 12 12 13 14 14 12 10 9 8 8 8 9 10 11 12 13 13 12 10
8 8 8 8 9 9 9 10 10 9 8 8 8 8 9 10 11 12 13 13 14 13 12 11 10 10 9 8 9 10 11 13 14 15 14 13 12 12 12 12 12 12 12 13 13 13 12 11 11 10 9 9 9 10 10 10 11 11 11 12 11 10 8
9 9 9 9 9 9 10 11 11 11 10 10 10 11 11 12 12 13 14 14 13 12 11 10 9 10 10 11 12 14 15 15 15 13 12 11 10 11 11 11 11 11 11 11 11 11 10 9 9 10 11 11 11 11 11 10 10 10 10 10 10 10 10
10 10 10 10 11 12 13 14 13 12 11 10 11 12 12 13 14 14 14 13 12 11 10 10 11 12 13 14 15 15 14 12 11 11 10 10 10 10 10 9 9 9 9 10 10 9 10 11 12 12 11 11 11 10 10 9 9 9 9 9 10 11 12
11 11 12 13 14 14 14 13 12 11 10 11 11 13 14 15 15 14 12 11 11 11 11 12 13 13 13 13 13 12 11 11 11 10 10 10 10 9 8 8 8 9 9 10 11 11 12 12 11 11 10 10 9 10 10 10 10 10 10 11 12 12 13
13 13 14 14 14 13 13 12 11 11 11 12 13 15 15 14 13 12 11 11 12 12 12 12 13 13 13 14 13 13 13 12 11 10 10 9 9 8 8 9 10 10 11 12 12 11 11 10 9 9 9 9 10 11 12 11 11 12 13 13 14 14 14
13 14 14 14 14 13 13 12 11 12 13 14 16 16 14 13 13 13 13 13 13 14 14 15 16 16 15 15 14 13 12 11 9 9 9 8 9 9 10 11 12 12 11 11 10 9 9 9 9 9 10 11 12 12 12 13 14 15 14 13 13 14 14
15 15 15 15 14 14 13 13 14 15 16 16 16 15 15 15 16 16 16 16 16 17 18 18 17 16 14 13 12 11 11 9 9 9 9 10 11 12 12 12 12 11 10 9 9 9 9 9 10 11 13 14 14 14 14 15 15 14 13 13 13 12 10
16 15 15 14 14 14 15 16 16 16 16 16 16 17 17 17 17 16 16 16 17 17 16 14 13 12 11 11 10 10 9 8 9 10 12 13 13 13 12 11 11 10 10 10 10 10 10 11 13 15 15 14 14 15 15 14 13 13 13 12 11 9 8
14 14 14 14 15 16 15 16 16 16 17 18 18 18 17 16 15 15 15 15 15 13 12 11 10 10 10 10 9 9 9 10 12 13 13 13 12 12 11 10 11 11 10 11 11 11 12 14 16 16 14 14 14 14 13 12 12 12 11 10 9 9 8
15 15 16 15 16 16 16 17 18 19 19 18 17 16 15 15 14 13 13 12 11 10 9 9 9 8 8 9 9 10 11 12 13 12 12 12 11 11 11 10 11 11 11 12 12 13 15 16 16 15 14 14 13 11 11 11 11 11 10 9 8 7 6
16 17 17 17 18 18 19 19 18 17 16 15 14 13 12 11 10 10 10 10 9 9 9 9 8 7 8 10 11 12 12 13 13 12 12 12 11 11 11 12 12 13 13 14 14 15 17 16 14 13 13 12 11 10 10 10 10 9 8 6 5 4 3
17 18 19 19 19 17 16 15 14 13 13 12 11 11 10 9 9 9 10 10 9 8 8 7 8 9 11 13 13 13 13 13 13 12 12 11 12 13 13 13 14 15 15 15 15 15 15 14 12 11 11 10 10 10 10 9 8 6 4 3 3 3 4
19 18 17 16 14 14 13 13 12 12 11 10 10 10 9 9 9 9 9 9 9 9 10 11 12 14 14 14 13 13 13 14 13 12 12 13 13 14 14 15 16 16 14 13 13 13 11 11 10 10 10 10 10 9 8 6 4 3 3 3 3 3 4
15 14 13 12 12 12 11 10 10 9 8 8 8 8 9 9 10 11 10 10 10 10 12 13 14 14 13 12 13 13 14 14 14 13 14 15 15 14 14 15 15 13 12 12 11 10 9 9 9 9 9 8 8 7 6 4 3 4 5 4 4 5 7
12 12 12 11 9 8 7 6 7 7 8 9 10 10 11 11 11 11 11 11 11 11 11 12 13 13 13 13 14 16 16 15 14 14 14 14 13 12 12 12 13 11 10 10 9 9 8 8 8 8 7 6 5 5 4 4 5 6 6 5 6 8 9
11 9 7 6 6 6 8 9 11 12 12 13 12 12 12 12 11 12 13 14 15 15 15 15 15 16 17 18 18 17 16 14 12 12 12 11 10 10 11 12 11 9 9 8 7 8 8 8 8 7 6 5 5 6 6 5 5 4 4 5 7 9 10
7 7 7 9 11 13 14 14 14 14 14 14 14 15 16 17 18 19 20 21 21 21 21 20 19 19 17 17 16 14 13 12 11 10 10 9 9 10 11 11 9 7 8 8 7 7 6 5 6 5 5 5 5 5 6 7 7 7 7 9 10 11 12
11 13 15 16 15 15 14 14 14 16 17 18 20 22 22 22 22 22 22 21 20 19 18 17 16 15 13 12 11 11 11 10 9 8 8 8 8 10 10 8 7 7 7 6 5 5 5 5 6 6 6 7 7 6 7 7 9 11 11 12 12 12 11
17 17 16 15 15 15 16 17 18 19 20 21 20 19 18 17 17 16 16 15 15 14 14 13 12 12 11 11 10 10 9 8 7 6 6 7 8 9 8 7 6 6 5 5 6 6 6 7 9 9 9 9 9 10 11 11 11 11 11 11 10 10 11
16 15 15 15 16 17 18 18 19 18 17 16 15 14 14 13 13 12 12 12 11 11 10 10 9 8 8 8 7 7 6 6 5 5 5 6 7 7 6 5 5 4 4 6 7 8 9 10 10 10 10 11 13 14 13 11 10 9 9 10 11 12 15
15 16 17 17 18 18 17 16 16 15 14 13 12 11 10 9 8 8 8 7 7 7 6 6 6 6 6 6 5 6 5 5 5 6 7 8 8 7 7 6 7 8 8 8 8 9 10 11 11 11 12 13 13 11 9 9 9 10 11 12 14 18 21
17 17 17 16 14 13 13 12 11 10 10 9 8 7 7 6 6 6 6 6 6 6 6 6 6 7 7 7 8 8 9 9 10 10 10 10 10 10 11 11 12 13 13 12 12 12 11 10 10 9 9 8 7 6 6 9 11 12 14 18 21 24 26
15 14 12 11 10 9 9 8 7 7 6 6 6 6 6 7 7 7 7 8 8 9 9 10 10 10 11 11 12 13 14 14 15 15 14 15 15 14 15 14 14 14 13 12 11 10 9 9 9 8 8 9 9 11 13 15 17 18 21 24 26 25 23
10 10 9 8 8 7 6 6 6 6 6 6 7 7 7 8 8 9 9 9 10 10 11 11 11 12 12 13 14 14 15 15 15 15 15 15 14 13 12 11 10 9 8 8 8 9 9 10 11 13 14 15 17 19 21 22 22 23 24 24 22 20 18
8 7 7 7 6 6 6 6 6 7 7 8 9 10 11 11 12 12 13 14 14 14 13 13 14 14 14 15 14 14 13 12 12 11 11 10 9 9 8 8 8 8 9 10 11 13 14 15 16 18 19 21 23 24 25 24 23 22 21 19 17 17 16
6 6 6 6 6 7 7 8 9 11 13 14 15 15 15 15 16 16 16 16 15 14 14 14 14 13 12 11 11 10 10 9 9 9 10 10 11 12 12 13 13 14 16 17 18 19 20 20 21 22 23 24 24 24 22 21 19 18 17 16 16 16 15
5 6 7 8 9 11 12 14 15 15 16 16 16 16 15 14 13 13 12 11 12 12 13 13 13 13 12 12 12 12 13 13 14 14 15 16 17 18 19 19 20 21 21 22 22 23 23 22 22 21 21 20 19 18 18 17 17 17 16 16 16 15 14
10 11 12 13 14 14 15 15 15 14 13 12 11 10 10 10 10 12 13 15 16 16 16 16 16 17 17 17 18 19 20 20 21 22 22 23 23 23 23 24 23 23 22 21 21 21 20 19 18 17 17 16 15 15 15 15 15 15 15 15 16 15 14
13 15 15 14 14 13 13 12 12 11 10 9 10 10 11 13 15 16 16 16 16 17 19 21 23 24 25 26 26 26 26 26 25 25 25 24 24 23 23 22 21 19 17 16 16 15 14 14 14 14 13 14 14 13 14 14 14 14 14 14 14 14 15
13 12 11 11 12 12 12 11 10 10 10 12 13 14 15 16 17 19 20 23 25 26 27 27 25 24 23 21 20 19 18 17 16 15 14 14 13 13 12 11 11 10 10 10 10 10 10 10 10 10 10 10 10 10 11 11 12 12 12 13 13 14 14
15 14 13 12 11 11 11 11 12 13 14 15 15 17 20 22 24 25 25 24 22 19 16 15 14 13 12 12 11 11 11 10 10 10 10 10 10 10 10 10 9 9 9 9 9 8 8 8 8 8 8 8 9 9 9 9 10 11 11 11 12 13 12
12 14 13 12 12 12 12 14 15 16 17 19 22 25 26 25 22 19 15 13 11 10 9 9 9 8 8 7 7 7 7 7 7 7 7 7 7 7 7 7 8 8 8 9 9 8 9 9 9 9 9 9 9 9 10 10 9 10 10 10 10 11 12
10 10 11 12 13 14 15 17 19 21 23 24 24 21 18 15 12 11 9 8 8 7 7 7 8 9 10 11 12 14 14 15 15 15 15 15 14 14 13 11 10 9 8 7 6 6 6 6 7 7 7 8 8 8 9 10 10 10 10 10 10 10 11
Height
5491 5488 5487 5486 5484 5483 5480 5478 5476 5473 5470 5468 5467 5465 5462 5460 5457 5455 5455 5453 5451 5450 5448 5446 5444 5443 5442 5438 5436 5436 5434 5433 5431 5429 5427 5424 5423 5422 5421 5418 5416 5417 5421 5422 5420 5420 5418 5417 5415 5415 5415 5414 5412 5411 5410 5410 5411 5411 5410 5410 5410 5409 5408
5479 5476 5475 5473 5472 5471 5468 5466 5464 5461 5458 5456 5455 5453 5450 5448 5445 5444 5443 5441 5439 5438 5435 5433 5432 5432 5430 5426 5424 5424 5422 5421 5419 5416 5415 5413 5412 5411 5410 5407 5405 5405 5408 5409 5408 5407 5406 5405 5405 5404 5402 5401 5400 5399 5397 5398 5398 5397 5398 5398 5397 5396 5396
5467 5464 5462 5460 5460 5458 5456 5454 5452 5449 5446 5445 5443 5441 5438 5436 5433 5432 5430 5428 5427 5426 5423 5421 5421 5420 5417 5414 5412 5412 5410 5408 5406 5404 5403 5401 5400 5399 5398 5396 5394 5393 5395 5397 5396 5395 5394 5393 5393 5392 5391 5389 5388 5387 5385 5386 5386 5385 5385 5385 5384 5383 5383
5455 5452 5449 5448 5447 5445 5443 5441 5439 5436 5434 5433 5431 5428 5426 5424 5421 5419 5418 5416 5415 5413 5410 5409 5409 5408 5405 5402 5400 5400 5398 5396 5394 5392 5391 5389 5388 5387 5386 5385 5382 5381 5382 5384 5385 5384 5383 5381 5380 5380 5379 5377 5376 5375 5374 5373 5373 5373 5372 5371 5370 5371 5372
5442 5439 5437 5435 5434 5432 5430 5428 5426 5424 5422 5421 5418 5416 5414 5411 5409 5407 5406 5404 5402 5400 5398 5397 5396 5395 5392 5390 5389 5388 5386 5385 5383 5380 5379 5377 5376 5375 5374 5372 5371 5370 5370 5371 5373 5373 5371 5369 5368 5368 5367 5365 5364 5363 5362 5362 5362 5361 5359 5358 5358 5358 5359
5430 5427 5425 5423 5421 5419 5417 5416 5413 5412 5410 5408 5405 5403 5401 5399 5397 5395 5393 5391 5390 5388 5386 5385 5384 5383 5380 5379 5378 5377 5375 5373 5371 5368 5367 5366 5365 5363 5361 5360 5359 5359 5358 5359 5360 5360 5359 5358 5357 5356 5355 5354 5352 5351 5351 5351 5349 5348 5347 5346 5346 5346 5346
5418 5416 5413 5410 5408 5406 5405 5403 5401 5399 5398 5395 5393 5390 5388 5386 5384 5382 5381 5379 5378 5376 5374 5373 5372 5370 5369 5367 5366 5365 5363 5361 5359 5357 5355 5355 5353 5351 5350 5349 5348 5347 5346 5346 5347 5348 5348 5347 5345 5344 5344 5343 5340 5339 5340 5338 5336 5336 5336 5335 5335 5335 5334
5406 5403 5401 5398 5396 5394 5392 5390 5388 5387 5384 5382 5380 5377 5375 5374 5371 5370 5368 5367 5365 5364 5362 5361 5360 5358 5357 5356 5355 5353 5351 5349 5347 5345 5344 5344 5342 5340 5338 5338 5337 5335 5334 5334 5335 5336 5336 5335 5334 5333 5332 5330 5328 5328 5327 5324 5322 5325 5326 5323 5322 5323 5322
5394 5391 5389 5386 5384 5381 5379 5377 5376 5374 5371 5369 5366 5364 5362 5361 5359 5357 5356 5355 5353 5352 5351 5350 5348 5347 5346 5344 5343 5342 5340 5338 5335 5334 5333 5332 5330 5328 5327 5326 5325 5324 5323 5322 5322 5323 5324 5323 5323 5322 5320 5318 5316 5315 5314 5311 5310 5313 5314 5311 5311 5312 5311
5381 5378 5376 5374 5372 5370 5367 5365 5364 5361 5358 5356 5354 5351 5349 5348 5347 5345 5344 5343 5342 5341 5340 5338 5337 5336 5335 5333 5332 5331 5328 5326 5324 5323 5321 5320 5318 5316 5315 5314 5313 5312 5311 5310 5310 5311 5311 5311 5312 5312 5307 5305 5304 5302 5301 5299 5298 5300 5301 5300 5301 5302 5300
5368 5366 5364 5362 5360 5358 5355 5353 5351 5348 5346 5343 5341 5339 5337 5335 5335 5333 5332 5332 5331 5330 5329 5327 5326 5325 5323 5322 5321 5319 5317 5314 5313 5311 5309 5307 5306 5305 5304 5303 5301 5301 5300 5298 5298 5299 5299 5299 5302 5300 5295 5293 5291 5289 5288 5288 5288 5289 5289 5288 5289 5291 5290
5356 5354 5351 5349 5347 5346 5343 5341 5339 5336 5334 5331 5329 5327 5325 5324 5323 5322 5322 5321 5320 5319 5317 5316 5314 5313 5312 5311 5309 5307 5305 5303 5301 5299 5297 5295 5294 5293 5293 5291 5290 5289 5288 5286 5286 5286 5287 5288 5289 5287 5284 5281 5279 5277 5276 5277 5277 5277 5276 5276 5277 5279 5279
5344 5342 5339 5337 5335 5333 5332 5329 5327 5324 5322 5319 5317 5315 5313 5313 5312 5311 5311 5310 5309 5307 5306 5304 5303 5301 5300 5299 5297 5294 5292 5290 5288 5287 5285 5283 5282 5282 5282 5280 5278 5277 5275 5274 5274 5274 5277 5277 5275 5275 5273 5269 5266 5265 5266 5266 5266 5265 5264 5265 5266 5267 5266
5332 5330 5327 5325 5323 5322 5320 5318 5315 5313 5311 5308 5306 5303 5301 5302 5302 5301 5300 5299 5298 5296 5294 5292 5291 5289 5289 5287 5284 5282 5280 5278 5276 5274 5273 5271 5270 5270 5270 5269 5267 5265 5263 5263 5262 5263 5266 5265 5262 5263 5262 5258 5254 5254 5254 5254 5254 5254 5253 5253 5254 5255 5254
5321 5318 5316 5314 5312 5311 5309 5307 5304 5302 5300 5298 5295 5292 5289 5290 5291 5291 5289 5287 5286 5284 5282 5280 5279 5277 5276 5275 5272 5270 5268 5266 5263 5261 5260 5260 5259 5259 5258 5257 5257 5254 5251 5251 5252 5252 5253 5252 5251 5251 5250 5247 5244 5244 5243 5241 5241 5242 5241 5242 5243 5243 5242
5310 5308 5306 5304 5302 5300 5299 5297 5294 5292 5290 5287 5284 5281 5278 5277 5279 5279 5278 5276 5274 5272 5270 5268 5267 5265 5264 5262 5261 5258 5255 5253 5251 5249 5248 5248 5248 5247 5246 5246 5246 5243 5240 5240 5241 5241 5241 5240 5239 5238 5238 5236 5234 5233 5231 5228 5228 5230 5230 5229 5231 5232 5231
5299 5297 5295 5293 5291 5290 5288 5286 5283 5281 5279 5276 5273 5269 5266 5266 5266 5266 5266 5265 5263 5261 5259 5256 5254 5253 5251 5250 5249 5246 5243 5240 5238 5237 5237 5237 5236 5236 5235 5236 5234 5231 5230 5229 5229 5229 5229 5229 5229 5227 5227 5226 5223 5222 5219 5215 5217 5219 5216 5214 5217 5219 5219
5289 5287 5285 5283 5281 5279 5277 5275 5272 5269 5268 5265 5262 5258 5255 5254 5254 5253 5252 5252 5251 5249 5248 5245 5243 5241 5239 5238 5237 5234 5231 5228 5226 5226 5226 5225 5225 5225 5225 5225 5223 5220 5220 5219 5216 5216 5217 5217 5218 5217 5216 5215 5213 5210 5206 5204 5206 5206 5201 5200 5204 5205 5204
5279 5276 5274 5272 5270 5268 5266 5264 5261 5258 5256 5254 5251 5247 5243 5242 5242 5241 5240 5239 5238 5237 5236 5234 5233 5230 5228 5226 5225 5222 5220 5217 5214 5215 5215 5214 5213 5214 5216 5214 5210 5209 5209 5207 5206 5206 5205 5205 5205 5205 5204 5203 5201 5198 5193 5191 5194 5193 5189 5189 5192 5191 5189
5268 5266 5263 5261 5259 5256 5254 5252 5249 5247 5245 5243 5240 5236 5232 5230 5230 5229 5228 5227 5226 5225 5224 5223 5222 5220 5218 5216 5213 5211 5209 5206 5203 5202 5203 5203 5202 5204 5205 5201 5197 5197 5198 5196 5195 5196 5195 5194 5193 5192 5191 5191 5189 5186 5181 5177 5177 5178 5177 5177 5178 5177 5175
5257 5255 5252 5250 5247 5245 5243 5241 5239 5236 5234 5231 5228 5225 5221 5219 5219 5217 5216 5216 5214 5213 5213 5212 5210 5209 5208 5205 5203 5201 5199 5196 5193 5190 5190 5192 5193 5193 5192 5188 5185 5186 5185 5183 5184 5184 5183 5182 5182 5180 5178 5177 5175 5173 5169 5165 5163 5163 5162 5163 5163 5163 5161
5246 5244 5242 5239 5237 5234 5232 5230 5228 5225 5222 5220 5217 5215 5212 5210 5208 5206 5205 5205 5204 5202 5202 5201 5199 5198 5196 5194 5192 5190 5187 5185 5183 5180 5179 5181 5182 5181 5178 5176 5175 5175 5173 5172 5172 5172 5171 5171 5169 5167 5166 5163 5161 5158 5156 5152 5151 5149 5148 5149 5149 5148 5146
5236 5234 5231 5229 5226 5224 5222 5220 5218 5215 5212 5210 5207 5205 5203 5200 5198 5196 5194 5193 5193 5191 5190 5189 5188 5187 5185 5183 5181 5179 5175 5173 5172 5170 5169 5169 5169 5167 5165 5163 5163 5164 5163 5161 5160 5159 5159 5159 5157 5155 5153 5150 5147 5144 5141 5138 5136 5136 5136 5136 5136 5134 5132
5226 5224 5222 5219 5217 5214 5212 5210 5208 5205 5203 5200 5198 5196 5194 5191 5189 5186 5184 5183 5182 5180 5179 5178 5177 5175 5173 5172 5170 5168 5164 5162 5160 5159 5158 5157 5155 5153 5151 5149 5149 5150 5150 5149 5149 5148 5148 5148 5146 5143 5142 5140 5136 5132 5128 5125 5123 5122 5123 5124 5123 5122 5119
5216 5214 5212 5210 5208 5205 5203 5201 5198 5196 5193 5191 5189 5186 5183 5181 5179 5176 5174 5172 5171 5169 5167 5166 5165 5163 5161 5159 5158 5156 5153 5151 5149 5147 5146 5145 5142 5139 5137 5135 5135 5135 5134 5134 5135 5135 5135 5136 5135 5133 5131 5129 5124 5121 5118 5116 5113 5111 5111 5111 5111 5110 5109
5207 5205 5203 5202 5200 5197 5194 5192 5189 5186 5183 5181 5179 5176 5173 5170 5167 5165 5163 5161 5159 5157 5155 5153 5152 5151 5149 5148 5146 5143 5140 5138 5137 5135 5133 5131 5128 5126 5124 5122 5121 5120 5119 5119 5119 5120 5120 5122 5122 5121 5119 5116 5113 5111 5109 5106 5102 5100 5099 5099 5099 5099 5098
5199 5197 5195 5193 5191 5188 5185 5182 5179 5176 5173 5170 5168 5165 5162 5159 5156 5153 5151 5149 5147 5145 5143 5141 5139 5137 5136 5134 5133 5131 5128 5126 5124 5122 5121 5119 5116 5113 5111 5109 5107 5106 5105 5105 5105 5105 5105 5106 5106 5106 5105 5104 5102 5100 5098 5095 5091 5090 5090 5089 5088 5088 5088
5190 5188 5185 5184 5181 5179 5176 5172 5169 5165 5162 5159 5156 5153 5150 5147 5144 5141 5138 5136 5133 5131 5129 5127 5125 5124 5122 5120 5118 5117 5115 5113 5111 5109 5107 5106 5104 5101 5098 5096 5094 5093 5092 5092 5092 5091 5091 5091 5090 5090 5091 5090 5088 5088 5087 5084 5081 5081 5081 5079 5078 5078 5079
5181 5178 5176 5173 5171 5168 5165 5162 5159 5154 5150 5146 5143 5140 5137 5134 5131 5129 5126 5123 5119 5117 5115 5114 5112 5110 5108 5106 5104 5102 5101 5099 5097 5095 5094 5093 5091 5088 5085 5082 5080 5080 5080 5080 5079 5078 5077 5077 5076 5076 5077 5076 5076 5076 5075 5073 5072 5072 5071 5070 5069 5069 5070
5171 5168 5165 5163 5160 5157 5154 5151 5149 5144 5139 5135 5131 5127 5124 5122 5119 5117 5114 5111 5107 5104 5102 5100 5098 5096 5093 5090 5088 5087 5086 5084 5082 5081 5080 5079 5077 5075 5073 5071 5068 5067 5067 5066 5066 5066 5065 5064 5064 5064 5064 5064 5065 5065 5064 5063 5063 5063 5062 5061 5061 5062 5062
5160 5157 5154 5152 5149 5146 5143 5140 5137 5133 5129 5125 5121 5117 5113 5110 5107 5104 5102 5099 5095 5092 5090 5086 5084 5082 5079 5076 5074 5072 5071 5070 5068 5066 5066 5064 5063 5062 5061 5059 5058 5056 5054 5053 5053 5054 5053 5053 5053 5053 5053 5053 5054 5054 5053 5053 5053 5053 5053 5053 5054 5054 5054
5148 5145 5142 5139 5137 5134 5131 5128 5125 5121 5117 5113 5110 5105 5102 5100 5096 5091 5087 5084 5080 5078 5076 5074 5071 5069 5066 5063 5061 5059 5057 5055 5054 5053 5052 5051 5049 5049 5048 5047 5047 5045 5043 5042 5042 5042 5042 5042 5042 5043 5043 5043 5043 5043 5043 5043 5043 5044 5044 5044 5045 5046 5046
5138 5136 5132 5128 5125 5122 5119 5117 5113 5109 5105 5101 5097 5093 5091 5089 5085 5079 5074 5071 5067 5064 5062 5060 5059 5057 5055 5053 5050 5048 5045 5043 5041 5040 5039 5038 5037 5037 5036 5035 5034 5033 5032 5032 5032 5031 5031 5032 5032 5032 5032 5033 5033 5033 5033 5034 5034 5035 5035 5036 5036 5037 5038
5126 5124 5121 5118 5114 5111 5107 5104 5101 5097 5092 5088 5085 5081 5078 5076 5073 5067 5063 5060 5057 5054 5050 5048 5045 5044 5043 5041 5039 5037 5035 5033 5031 5029 5027 5026 5025 5024 5024 5023 5022 5021 5021 5021 5020 5020 5020 5021 5021 5021 5022 5022 5023 5023 5023 5024 5025 5026 5026 5027 5028 5028 5029
5117 5113 5110 5107 5104 5100 5096 5092 5089 5085 5080 5076 5072 5069 5066 5063 5060 5057 5053 5049 5045 5043 5040 5037 5034 5032 5029 5027 5026 5024 5022 5020 5019 5017 5016 5014 5013 5012 5011 5010 5009 5008 5009 5008 5008 5009 5009 5009 5009 5010 5010 5011 5012 5013 5014 5015 5016 5016 5017 5018 5019 5020 5020
5110 5106 5101 5097 5093 5090 5086 5082 5078 5074 5069 5065 5062 5059 5056 5053 5050 5047 5043 5039 5035 5031 5027 5024 5021 5018 5016 5013 5011 5010 5008 5006 5004 5002 5001 5000 5000 4999 4998 4998 4997 4996 4996 4995 4995 4996 4997 4997 4998 4998 4999 4999 5001 5002 5004 5005 5006 5007 5008 5009 5010 5011 5012